DLH595 DNAA-EDDF

Flight info

Callsign DLH595
Flight time N/A
Altitude 37000
Route OXORU1S OXORU DCT MIMBA/N0472F380 UA604 AS UR978 CSO UA605 CIRTA DCT ERETI DCT OMARD/N0467F400 DCT NOSTA DCT NOPMU DCT ABESI DCT LADOL T163 EMPAX EMPAX5C
Aircraft A346/H-SDE2E3FGHIJ3J4J5M1P2RWXYZ/LB1D1

Departure

Time 2026-04-30 08:51
Airport Nnamdi Azikiwe International Airport (DNAA)

Arrival

Time N/A
Airport Frankfurt Main Airport (EDDF)
Time Latitude Longitude Altitude Speed Heading
2026-04-30 08:31 9.00712 7.26764 1133 ft 0 kts 179°
2026-04-30 08:39 9.00713 7.26764 1133 ft 0 kts 179°
2026-04-30 08:39 9.00718 7.26764 1133 ft 0 kts 179°
2026-04-30 08:40 9.00723 7.26764 1133 ft 0 kts 179°
2026-04-30 08:40 9.00732 7.26764 1133 ft 1 kts 178°
2026-04-30 08:40 9.00751 7.26762 1133 ft 4 kts 172°
2026-04-30 08:40 9.00776 7.26753 1133 ft 3 kts 149°
2026-04-30 08:41 9.00791 7.26734 1132 ft 4 kts 107°
2026-04-30 08:41 9.00795 7.26695 1131 ft 5 kts 88°
2026-04-30 08:41 9.00794 7.26658 1129 ft 5 kts 87°
2026-04-30 08:41 9.00786 7.26625 1129 ft 4 kts 66°
2026-04-30 08:42 9.00773 7.26596 1129 ft 4 kts 60°
2026-04-30 08:42 9.00756 7.26576 1129 ft 3 kts 35°
2026-04-30 08:42 9.00742 7.26566 1129 ft 0 kts 36°
2026-04-30 08:45 9.00744 7.26567 1129 ft 0 kts 36°
2026-04-30 08:45 9.00754 7.26575 1129 ft 2 kts 36°
2026-04-30 08:46 9.00777 7.26592 1129 ft 6 kts 36°
2026-04-30 08:46 9.00823 7.26625 1129 ft 9 kts 35°
2026-04-30 08:46 9.00884 7.26668 1130 ft 11 kts 35°
2026-04-30 08:46 9.00955 7.26717 1131 ft 12 kts 34°
2026-04-30 08:47 9.01033 7.26771 1131 ft 14 kts 34°
2026-04-30 08:47 9.01121 7.26834 1131 ft 16 kts 36°
2026-04-30 08:47 9.01217 7.26903 1132 ft 16 kts 36°
2026-04-30 08:47 9.01317 7.26975 1131 ft 18 kts 35°
2026-04-30 08:48 9.01430 7.27055 1130 ft 20 kts 34°
2026-04-30 08:48 9.01548 7.27136 1129 ft 21 kts 35°
2026-04-30 08:48 9.01672 7.27223 1129 ft 22 kts 35°
2026-04-30 08:48 9.01797 7.27312 1131 ft 18 kts 35°
2026-04-30 08:49 9.01888 7.27359 1131 ft 12 kts
2026-04-30 08:49 9.01944 7.27331 1132 ft 9 kts 310°
2026-04-30 08:49 9.01976 7.27280 1131 ft 8 kts 289°
2026-04-30 08:49 9.01973 7.27236 1130 ft 4 kts 218°
2026-04-30 08:50 9.01967 7.27231 1130 ft 0 kts 218°
2026-04-30 08:50 9.01960 7.27226 1129 ft 3 kts 218°
2026-04-30 08:50 9.01868 7.27157 1128 ft 46 kts 215°
2026-04-30 08:51 9.01345 7.26787 1125 ft 131 kts 215°
2026-04-30 08:51 9.00422 7.26136 1232 ft 184 kts 215°
2026-04-30 08:51 8.99341 7.25391 1892 ft 191 kts 215°
2026-04-30 08:51 8.98247 7.24620 2709 ft 195 kts 217°
2026-04-30 08:52 8.97441 7.23619 3348 ft 188 kts 255°
2026-04-30 08:52 8.97522 7.22296 3676 ft 197 kts 294°
2026-04-30 08:52 8.98421 7.21225 3951 ft 211 kts 328°
2026-04-30 08:52 8.99789 7.20613 4360 ft 221 kts 338°
2026-04-30 08:53 9.01221 7.20000 4806 ft 222 kts 337°
2026-04-30 08:53 9.02648 7.19365 5357 ft 226 kts 337°
2026-04-30 08:53 9.04078 7.18715 6068 ft 223 kts 337°
2026-04-30 08:53 9.05479 7.18072 6705 ft 223 kts 338°
2026-04-30 08:54 9.06907 7.17413 7290 ft 226 kts 339°
2026-04-30 08:54 9.08332 7.16755 7843 ft 229 kts 340°
2026-04-30 08:54 9.09803 7.16076 8390 ft 232 kts 340°
2026-04-30 08:54 9.11271 7.15398 8922 ft 235 kts 341°
2026-04-30 08:55 9.12783 7.14699 9446 ft 239 kts 342°
2026-04-30 08:55 9.14307 7.14049 9954 ft 238 kts 351°
2026-04-30 08:55 9.15936 7.13992 10410 ft 233 kts 16°
2026-04-30 08:55 9.17519 7.14467 10651 ft 248 kts 22°
2026-04-30 08:56 9.19236 7.15043 10916 ft 266 kts 22°
2026-04-30 08:56 9.21047 7.15648 11216 ft 284 kts 22°
2026-04-30 08:56 9.23002 7.16296 11524 ft 302 kts 22°
2026-04-30 08:56 9.25047 7.16969 11837 ft 320 kts 22°
2026-04-30 08:57 9.27244 7.17690 12139 ft 337 kts 22°
2026-04-30 08:57 9.29522 7.18435 12438 ft 355 kts 22°
2026-04-30 08:57 9.31955 7.19231 12733 ft 372 kts 21°
2026-04-30 08:57 9.34446 7.20045 13199 ft 383 kts 21°
2026-04-30 08:58 9.37019 7.20883 13846 ft 388 kts 21°
2026-04-30 08:58 9.39582 7.21717 14498 ft 392 kts 22°
2026-04-30 08:58 9.42199 7.22570 15119 ft 395 kts 22°
2026-04-30 08:58 9.44849 7.23435 15712 ft 399 kts 22°
2026-04-30 08:59 9.47495 7.24299 16275 ft 403 kts 22°
2026-04-30 08:59 9.50194 7.25180 16812 ft 407 kts 22°
2026-04-30 08:59 9.52883 7.26060 17332 ft 411 kts 22°
2026-04-30 08:59 9.55626 7.26958 17860 ft 414 kts 22°
2026-04-30 09:00 9.58399 7.27867 18391 ft 417 kts 21°
2026-04-30 09:00 9.61158 7.28770 18934 ft 419 kts 21°
2026-04-30 09:00 9.63934 7.29678 19462 ft 422 kts 21°
2026-04-30 09:00 9.66764 7.30606 19980 ft 424 kts 21°
2026-04-30 09:01 9.69591 7.31530 20495 ft 427 kts 21°
2026-04-30 09:01 9.72401 7.32450 20990 ft 429 kts 21°
2026-04-30 09:01 9.75270 7.33388 21492 ft 432 kts 20°
2026-04-30 09:01 9.78148 7.34330 21992 ft 434 kts 20°
2026-04-30 09:02 9.83915 7.36219 22960 ft 438 kts 20°
2026-04-30 09:02 9.86835 7.37176 23388 ft 442 kts 20°
2026-04-30 09:02 9.89792 7.38117 23784 ft 446 kts 19°
2026-04-30 09:03 9.92793 7.39059 24192 ft 450 kts 19°
2026-04-30 09:03 9.95810 7.40002 24599 ft 454 kts 19°
2026-04-30 09:03 9.98849 7.40953 25019 ft 457 kts 19°
2026-04-30 09:03 10.01869 7.41899 25421 ft 460 kts 18°
2026-04-30 09:04 10.04956 7.42868 25819 ft 464 kts 18°
2026-04-30 09:04 10.08057 7.43840 26218 ft 467 kts 18°
2026-04-30 09:04 10.11173 7.44819 26617 ft 469 kts 18°
2026-04-30 09:04 10.14317 7.45807 27006 ft 472 kts 18°
2026-04-30 09:05 10.17484 7.46802 27387 ft 476 kts 18°
2026-04-30 09:05 10.20645 7.47797 27767 ft 478 kts 18°
2026-04-30 09:05 10.23858 7.48807 28237 ft 479 kts 18°
2026-04-30 09:05 10.27007 7.49798 28809 ft 477 kts 17°
2026-04-30 09:06 10.30188 7.50797 29423 ft 475 kts 18°
2026-04-30 09:06 10.33356 7.51792 30004 ft 473 kts 18°
2026-04-30 09:06 10.36479 7.52773 30569 ft 471 kts 18°
2026-04-30 09:06 10.39642 7.53768 31135 ft 470 kts 18°
2026-04-30 09:07 10.42750 7.54746 31715 ft 468 kts 18°
2026-04-30 09:07 10.45830 7.55716 32284 ft 466 kts 18°
2026-04-30 09:07 10.48937 7.56694 32848 ft 464 kts 18°
2026-04-30 09:07 10.52036 7.57673 33409 ft 463 kts 18°
2026-04-30 09:08 10.55188 7.58667 33951 ft 462 kts 18°
2026-04-30 09:08 10.58306 7.59651 34496 ft 460 kts 18°
2026-04-30 09:08 10.61345 7.60609 35030 ft 459 kts 18°
2026-04-30 09:08 10.64417 7.61579 35533 ft 457 kts 18°
2026-04-30 09:09 10.67448 7.62535 35925 ft 457 kts 18°
2026-04-30 09:09 10.70491 7.63496 36211 ft 459 kts 18°
2026-04-30 09:09 10.73574 7.64469 36467 ft 462 kts 18°
2026-04-30 09:09 10.76652 7.65441 36729 ft 463 kts 19°
2026-04-30 09:10 10.79719 7.66410 37004 ft 465 kts 18°
2026-04-30 09:10 10.82845 7.67397 37095 ft 467 kts 19°
2026-04-30 09:10 10.89079 7.69369 37099 ft 467 kts 18°
2026-04-30 09:11 10.95276 7.71327 37100 ft 467 kts 18°
2026-04-30 09:11 11.01506 7.73297 37103 ft 467 kts 18°
2026-04-30 09:12 11.07735 7.75268 37102 ft 467 kts 18°
2026-04-30 09:12 11.13938 7.77230 37103 ft 467 kts 18°
2026-04-30 09:13 11.20186 7.79209 37103 ft 467 kts 19°
2026-04-30 09:13 11.26392 7.81176 37104 ft 467 kts 18°
2026-04-30 09:14 11.32596 7.83143 37102 ft 467 kts 18°
2026-04-30 09:14 11.38834 7.85121 37104 ft 467 kts 18°
2026-04-30 09:15 11.45026 7.87086 37101 ft 467 kts 18°
2026-04-30 09:15 11.51264 7.89066 37100 ft 467 kts 18°
2026-04-30 09:16 11.57461 7.91033 37098 ft 468 kts 18°
2026-04-30 09:16 11.63699 7.93014 37095 ft 467 kts 19°
2026-04-30 09:17 11.69908 7.94987 37095 ft 467 kts 19°
2026-04-30 09:17 11.76174 7.96981 37090 ft 467 kts 19°
2026-04-30 09:18 11.82384 7.98958 37089 ft 467 kts 18°
2026-04-30 09:18 11.88592 8.00934 37090 ft 467 kts 18°
2026-04-30 09:19 11.94818 8.02916 37093 ft 467 kts 18°
2026-04-30 09:19 12.01044 8.04899 37098 ft 467 kts 18°
2026-04-30 09:20 12.07262 8.06882 37096 ft 467 kts 18°
2026-04-30 09:20 12.13477 8.08867 37098 ft 467 kts 18°
2026-04-30 09:21 12.19695 8.10851 37097 ft 466 kts 18°
2026-04-30 09:21 12.25900 8.12832 37093 ft 466 kts 18°
2026-04-30 09:22 12.32076 8.14805 37091 ft 466 kts 18°
2026-04-30 09:22 12.38272 8.16784 37088 ft 465 kts 18°
2026-04-30 09:23 12.44475 8.18767 37085 ft 465 kts 18°
2026-04-30 09:23 12.50651 8.20743 37077 ft 465 kts 18°
2026-04-30 09:24 12.56875 8.22735 37072 ft 466 kts 18°
2026-04-30 09:24 12.63047 8.24713 37064 ft 466 kts 18°
2026-04-30 09:25 12.69259 8.26702 37064 ft 466 kts 17°
2026-04-30 09:25 12.75447 8.28685 37061 ft 466 kts 17°
2026-04-30 09:26 12.81659 8.30677 37062 ft 466 kts 17°
2026-04-30 09:26 12.87874 8.32672 37058 ft 466 kts 17°
2026-04-30 09:27 12.94066 8.34659 37065 ft 468 kts 17°
2026-04-30 09:27 12.97169 8.35656 37306 ft 469 kts 17°
2026-04-30 09:27 13.00289 8.36593 37656 ft 467 kts 14°
2026-04-30 09:28 13.03451 8.37345 37992 ft 466 kts 11°
2026-04-30 09:28 13.06663 8.37913 38054 ft 467 kts
2026-04-30 09:28 13.13175 8.38457 38049 ft 467 kts
2026-04-30 09:29 13.19659 8.38217 38056 ft 467 kts 355°
2026-04-30 09:29 13.26177 8.37610 38050 ft 467 kts 355°
2026-04-30 09:30 13.32660 8.36994 38050 ft 468 kts 355°
2026-04-30 09:30 13.39178 8.36380 38045 ft 468 kts 355°
2026-04-30 09:31 13.45661 8.35773 38043 ft 469 kts 355°
2026-04-30 09:31 13.52198 8.35160 38050 ft 469 kts 355°
2026-04-30 09:32 13.58688 8.34552 38047 ft 468 kts 355°
2026-04-30 09:32 13.65179 8.33941 38048 ft 468 kts 355°
2026-04-30 09:33 13.71717 8.33326 38049 ft 468 kts 355°
2026-04-30 09:33 13.78215 8.32717 38049 ft 469 kts 355°
2026-04-30 09:34 13.84741 8.32107 38049 ft 469 kts 355°
2026-04-30 09:34 13.91247 8.31498 38053 ft 469 kts 355°
2026-04-30 09:35 13.97756 8.30886 38046 ft 470 kts 355°
2026-04-30 09:35 14.04321 8.30266 38052 ft 470 kts 355°
2026-04-30 09:36 14.10849 8.29649 38052 ft 470 kts 355°
2026-04-30 09:36 14.17355 8.29037 38051 ft 469 kts 355°
2026-04-30 09:37 14.23894 8.28420 38056 ft 469 kts 355°
2026-04-30 09:37 14.30387 8.27807 38057 ft 468 kts 355°
2026-04-30 09:38 14.36858 8.27196 38057 ft 467 kts 355°
2026-04-30 09:38 14.43370 8.26580 38058 ft 467 kts 355°
2026-04-30 09:39 14.49846 8.25967 38059 ft 467 kts 355°
2026-04-30 09:39 14.56305 8.25356 38058 ft 465 kts 355°
2026-04-30 09:40 14.62788 8.24742 38059 ft 465 kts 355°
2026-04-30 09:40 14.69242 8.24130 38053 ft 464 kts 355°
2026-04-30 09:41 14.75691 8.23518 38050 ft 464 kts 355°
2026-04-30 09:41 14.82108 8.22908 38045 ft 463 kts 355°
2026-04-30 09:42 14.88528 8.22298 38042 ft 462 kts 355°
2026-04-30 09:42 14.94987 8.21684 38042 ft 462 kts 354°
2026-04-30 09:43 15.01393 8.21073 38042 ft 462 kts 354°
2026-04-30 09:43 15.07820 8.20462 38039 ft 462 kts 354°
2026-04-30 09:44 15.14240 8.19857 38046 ft 463 kts 354°
2026-04-30 09:44 15.20690 8.19248 38043 ft 462 kts 354°
2026-04-30 09:45 15.27131 8.18638 38047 ft 461 kts 354°
2026-04-30 09:45 15.33526 8.18032 38048 ft 462 kts 354°
2026-04-30 09:46 15.39967 8.17420 38050 ft 462 kts 354°
2026-04-30 09:46 15.46368 8.16812 38047 ft 461 kts 354°
2026-04-30 09:47 15.52799 8.16201 38052 ft 461 kts 354°
2026-04-30 09:47 15.59214 8.15590 38057 ft 462 kts 354°
2026-04-30 09:48 15.65616 8.14980 38053 ft 462 kts 354°
2026-04-30 09:48 15.72063 8.14366 38054 ft 462 kts 353°
2026-04-30 09:49 15.78474 8.13755 38057 ft 463 kts 353°
2026-04-30 09:49 15.84925 8.13139 38062 ft 462 kts 353°
2026-04-30 09:50 15.91331 8.12528 38063 ft 462 kts 353°
2026-04-30 09:50 15.97778 8.11912 38063 ft 463 kts 353°
2026-04-30 09:51 16.04209 8.11297 38065 ft 464 kts 353°
2026-04-30 09:51 16.10643 8.10681 38069 ft 464 kts 353°
2026-04-30 09:52 16.17105 8.10062 38070 ft 464 kts 353°
2026-04-30 09:52 16.23562 8.09445 38070 ft 463 kts 353°
2026-04-30 09:53 16.29959 8.08831 38071 ft 462 kts 353°
2026-04-30 09:53 16.36377 8.08216 38069 ft 462 kts 353°
2026-04-30 09:54 16.42836 8.07595 38069 ft 463 kts 353°
2026-04-30 09:54 16.49261 8.06977 38069 ft 463 kts 353°
2026-04-30 09:55 16.55681 8.06360 38065 ft 463 kts 353°
2026-04-30 09:55 16.62079 8.05745 38069 ft 462 kts 353°
2026-04-30 09:56 16.68529 8.05125 38068 ft 461 kts 353°
2026-04-30 09:56 16.74912 8.04509 38067 ft 461 kts 353°
2026-04-30 09:57 16.81309 8.03892 38068 ft 462 kts 352°
2026-04-30 09:57 16.87744 8.03271 38069 ft 462 kts 352°
2026-04-30 09:58 16.94132 8.02652 38070 ft 461 kts 352°
2026-04-30 09:58 17.00551 8.02060 38071 ft 462 kts 353°
2026-04-30 09:59 17.13402 8.01048 38080 ft 462 kts 353°
2026-04-30 10:00 17.23026 8.00278 38091 ft 462 kts 353°
2026-04-30 10:01 17.32643 7.99504 38109 ft 462 kts 353°
2026-04-30 10:02 17.42289 7.98727 38110 ft 462 kts 353°
2026-04-30 10:02 17.48693 7.98210 38108 ft 462 kts 353°
2026-04-30 10:03 17.55101 7.97691 38108 ft 461 kts 353°
2026-04-30 10:03 17.61520 7.97173 38107 ft 461 kts 353°
2026-04-30 10:04 17.67962 7.96652 38105 ft 461 kts 353°
2026-04-30 10:04 17.74371 7.96133 38104 ft 462 kts 353°
2026-04-30 10:05 17.80784 7.95613 38106 ft 462 kts 353°
2026-04-30 10:05 17.87209 7.95092 38103 ft 462 kts 353°
2026-04-30 10:06 17.93620 7.94570 38102 ft 462 kts 353°
2026-04-30 10:06 18.00039 7.94051 38104 ft 461 kts 353°
2026-04-30 10:07 18.06418 7.93533 38104 ft 461 kts 352°
2026-04-30 10:07 18.12865 7.93009 38102 ft 461 kts 352°
2026-04-30 10:08 18.19282 7.92485 38100 ft 462 kts 352°
2026-04-30 10:08 18.25707 7.91962 38098 ft 462 kts 352°
2026-04-30 10:09 18.32113 7.91440 38096 ft 461 kts 352°
2026-04-30 10:09 18.38509 7.90919 38095 ft 461 kts 352°
2026-04-30 10:10 18.44911 7.90394 38099 ft 461 kts 352°
2026-04-30 10:10 18.51352 7.89869 38100 ft 461 kts 352°
2026-04-30 10:11 18.57764 7.89345 38099 ft 461 kts 352°
2026-04-30 10:11 18.64166 7.88822 38097 ft 461 kts 352°
2026-04-30 10:12 18.70562 7.88298 38094 ft 461 kts 352°
2026-04-30 10:12 18.76952 7.87774 38090 ft 461 kts 352°
2026-04-30 10:13 18.83392 7.87245 38093 ft 461 kts 352°
2026-04-30 10:13 18.89787 7.86721 38097 ft 461 kts 352°
2026-04-30 10:14 18.96174 7.86196 38101 ft 462 kts 352°
2026-04-30 10:14 19.05830 7.85401 38105 ft 461 kts 352°
2026-04-30 10:15 19.12240 7.84874 38107 ft 460 kts 351°
2026-04-30 10:15 19.18636 7.84347 38104 ft 461 kts 352°
2026-04-30 10:16 19.25015 7.83820 38104 ft 461 kts 351°
2026-04-30 10:17 19.34661 7.83024 38104 ft 462 kts 351°
2026-04-30 10:17 19.44273 7.82227 38106 ft 462 kts 351°
2026-04-30 10:18 19.50701 7.81696 38107 ft 461 kts 351°
2026-04-30 10:19 19.60328 7.80935 38109 ft 461 kts 351°
2026-04-30 10:19 19.66720 7.80430 38110 ft 462 kts 351°
2026-04-30 10:20 19.73178 7.79918 38112 ft 462 kts 351°
2026-04-30 10:20 19.82819 7.79150 38114 ft 462 kts 351°
2026-04-30 10:21 19.89207 7.78641 38116 ft 461 kts 351°
2026-04-30 10:21 19.95640 7.78127 38118 ft 461 kts 351°
2026-04-30 10:22 20.02070 7.77614 38119 ft 461 kts 351°
2026-04-30 10:22 20.08468 7.77103 38114 ft 461 kts 351°
2026-04-30 10:23 20.14864 7.76591 38110 ft 461 kts 351°
2026-04-30 10:23 20.21282 7.76076 38107 ft 461 kts 351°
2026-04-30 10:24 20.27657 7.75566 38107 ft 460 kts 351°
2026-04-30 10:24 20.34092 7.75050 38101 ft 460 kts 351°
2026-04-30 10:25 20.40456 7.74539 38104 ft 460 kts 351°
2026-04-30 10:25 20.46870 7.74024 38105 ft 460 kts 350°
2026-04-30 10:26 20.53294 7.73507 38113 ft 460 kts 350°
2026-04-30 10:26 20.59681 7.72993 38113 ft 460 kts 350°
2026-04-30 10:27 20.66035 7.72482 38109 ft 459 kts 350°
2026-04-30 10:27 20.72435 7.71963 38111 ft 459 kts 350°
2026-04-30 10:28 20.78776 7.71451 38111 ft 458 kts 350°
2026-04-30 10:28 20.85169 7.70934 38113 ft 458 kts 350°
2026-04-30 10:29 20.91513 7.70420 38116 ft 459 kts 350°
2026-04-30 10:29 20.97908 7.69829 38118 ft 456 kts 347°
2026-04-30 10:30 21.04203 7.68969 38120 ft 456 kts 347°
2026-04-30 10:30 21.10503 7.68085 38118 ft 456 kts 347°
2026-04-30 10:31 21.16790 7.67203 38116 ft 456 kts 347°
2026-04-30 10:31 21.23122 7.66317 38119 ft 455 kts 347°
2026-04-30 10:32 21.29415 7.65434 38119 ft 456 kts 347°
2026-04-30 10:32 21.35692 7.64555 38119 ft 455 kts 347°
2026-04-30 10:33 21.41999 7.63670 38119 ft 455 kts 346°
2026-04-30 10:33 21.48264 7.62790 38119 ft 455 kts 346°
2026-04-30 10:34 21.54584 7.61900 38119 ft 455 kts 346°
2026-04-30 10:34 21.60877 7.61015 38121 ft 456 kts 346°
2026-04-30 10:35 21.67200 7.60124 38123 ft 455 kts 346°
2026-04-30 10:35 21.73478 7.59240 38125 ft 455 kts 346°
2026-04-30 10:36 21.79773 7.58353 38127 ft 454 kts 346°
2026-04-30 10:36 21.86069 7.57464 38131 ft 454 kts 346°
2026-04-30 10:37 21.92401 7.56568 38136 ft 454 kts 346°
2026-04-30 10:37 21.98697 7.55678 38144 ft 455 kts 346°
2026-04-30 10:38 22.04985 7.54787 38155 ft 455 kts 346°
2026-04-30 10:38 22.11277 7.53897 38167 ft 454 kts 346°
2026-04-30 10:39 22.17556 7.53006 38178 ft 453 kts 346°
2026-04-30 10:39 22.23839 7.52114 38182 ft 453 kts 346°
2026-04-30 10:40 22.30133 7.51220 38194 ft 453 kts 346°
2026-04-30 10:40 22.36366 7.50334 38200 ft 453 kts 346°
2026-04-30 10:41 22.42669 7.49436 38205 ft 453 kts 346°
2026-04-30 10:41 22.48912 7.48547 38213 ft 453 kts 346°
2026-04-30 10:42 22.55222 7.47647 38217 ft 452 kts 346°
2026-04-30 10:42 22.61464 7.46756 38220 ft 452 kts 345°
2026-04-30 10:43 22.67699 7.45865 38223 ft 451 kts 345°
2026-04-30 10:43 22.73941 7.44973 38224 ft 452 kts 345°
2026-04-30 10:44 22.80175 7.44081 38232 ft 452 kts 345°
2026-04-30 10:44 22.86412 7.43186 38236 ft 452 kts 345°
2026-04-30 10:45 22.92635 7.42293 38244 ft 452 kts 345°
2026-04-30 10:45 22.98874 7.41398 38255 ft 451 kts 345°
2026-04-30 10:46 23.05097 7.40503 38262 ft 451 kts 345°
2026-04-30 10:46 23.11331 7.39609 38273 ft 451 kts 345°
2026-04-30 10:47 23.17562 7.38711 38283 ft 451 kts 345°
2026-04-30 10:47 23.23826 7.37807 38288 ft 452 kts 345°
2026-04-30 10:48 23.30067 7.36907 38296 ft 452 kts 345°
2026-04-30 10:48 23.36285 7.36009 38303 ft 451 kts 345°
2026-04-30 10:49 23.42517 7.35107 38307 ft 451 kts 345°
2026-04-30 10:49 23.48758 7.34201 38308 ft 451 kts 344°
2026-04-30 10:50 23.55028 7.33448 38318 ft 453 kts 346°
2026-04-30 10:50 23.61294 7.32793 38324 ft 454 kts 346°
2026-04-30 10:51 23.67608 7.32131 38331 ft 453 kts 346°
2026-04-30 10:51 23.73896 7.31471 38342 ft 453 kts 346°
2026-04-30 10:52 23.80168 7.30808 38350 ft 453 kts 346°
2026-04-30 10:52 23.86465 7.30142 38353 ft 453 kts 346°
2026-04-30 10:53 23.92764 7.29474 38359 ft 454 kts 346°
2026-04-30 10:53 23.99061 7.28807 38365 ft 453 kts 346°
2026-04-30 10:54 24.05345 7.28139 38365 ft 454 kts 346°
2026-04-30 10:54 24.11640 7.27470 38364 ft 454 kts 346°
2026-04-30 10:55 24.17934 7.26801 38363 ft 453 kts 346°
2026-04-30 10:55 24.24210 7.26132 38356 ft 453 kts 346°
2026-04-30 10:56 24.30495 7.25462 38348 ft 454 kts 346°
2026-04-30 10:56 24.36826 7.24787 38346 ft 454 kts 346°
2026-04-30 10:57 24.43110 7.24116 38340 ft 453 kts 346°
2026-04-30 10:57 24.49410 7.23441 38338 ft 454 kts 346°
2026-04-30 10:58 24.55690 7.22770 38333 ft 454 kts 346°
2026-04-30 10:58 24.61979 7.22096 38334 ft 453 kts 346°
2026-04-30 10:59 24.68267 7.21420 38330 ft 453 kts 346°
2026-04-30 10:59 24.74531 7.20748 38324 ft 453 kts 346°
2026-04-30 11:00 24.80820 7.20071 38327 ft 453 kts 346°
2026-04-30 11:00 24.87098 7.19395 38328 ft 453 kts 346°
2026-04-30 11:01 24.93382 7.18716 38328 ft 453 kts 346°
2026-04-30 11:01 24.99673 7.18039 38327 ft 454 kts 346°
2026-04-30 11:02 25.05946 7.17369 38323 ft 452 kts 346°
2026-04-30 11:02 25.12244 7.16694 38319 ft 452 kts 346°
2026-04-30 11:03 25.18521 7.16020 38312 ft 452 kts 345°
2026-04-30 11:04 25.27917 7.15005 38302 ft 452 kts 345°
2026-04-30 11:04 25.34187 7.14327 38313 ft 452 kts 345°
2026-04-30 11:05 25.40470 7.13648 38315 ft 452 kts 345°
2026-04-30 11:05 25.46729 7.12971 38314 ft 451 kts 345°
2026-04-30 11:06 25.52966 7.12294 38306 ft 452 kts 345°
2026-04-30 11:06 25.59273 7.11610 38296 ft 453 kts 345°
2026-04-30 11:07 25.65541 7.10929 38275 ft 452 kts 345°
2026-04-30 11:07 25.71810 7.10248 38255 ft 451 kts 345°
2026-04-30 11:08 25.78058 7.09568 38235 ft 451 kts 345°
2026-04-30 11:08 25.84309 7.08886 38233 ft 451 kts 345°
2026-04-30 11:09 25.90569 7.08202 38238 ft 451 kts 345°
2026-04-30 11:09 25.96829 7.07518 38241 ft 451 kts 345°
2026-04-30 11:10 26.03089 7.06839 38235 ft 452 kts 345°
2026-04-30 11:10 26.09349 7.06174 38217 ft 452 kts 345°
2026-04-30 11:11 26.15612 7.05505 38196 ft 451 kts 345°
2026-04-30 11:11 26.21862 7.04836 38169 ft 451 kts 345°
2026-04-30 11:12 26.28119 7.04162 38154 ft 452 kts 345°
2026-04-30 11:12 26.34383 7.03490 38147 ft 451 kts 345°
2026-04-30 11:13 26.40654 7.02815 38137 ft 451 kts 345°
2026-04-30 11:13 26.46911 7.02141 38124 ft 451 kts 344°
2026-04-30 11:14 26.53165 7.01466 38113 ft 450 kts 344°
2026-04-30 11:14 26.59400 7.00793 38119 ft 452 kts 344°
2026-04-30 11:15 26.65678 7.00112 38129 ft 452 kts 344°
2026-04-30 11:15 26.71934 6.99437 38136 ft 451 kts 344°
2026-04-30 11:16 26.78217 6.98757 38147 ft 452 kts 344°
2026-04-30 11:16 26.84468 6.98076 38128 ft 451 kts 344°
2026-04-30 11:17 26.90710 6.97399 38108 ft 449 kts 344°
2026-04-30 11:17 26.96972 6.96718 38082 ft 450 kts 344°
2026-04-30 11:18 27.03208 6.96040 38059 ft 450 kts 343°
2026-04-30 11:18 27.12576 6.95017 38051 ft 452 kts 344°
2026-04-30 11:19 27.18875 6.94330 38047 ft 452 kts 344°
2026-04-30 11:19 27.25138 6.93645 38043 ft 452 kts 343°
2026-04-30 11:20 27.31377 6.92963 38042 ft 450 kts 343°
2026-04-30 11:20 27.37623 6.92280 38041 ft 450 kts 343°
2026-04-30 11:21 27.43876 6.91594 38038 ft 451 kts 343°
2026-04-30 11:21 27.50125 6.90909 38037 ft 450 kts 343°
2026-04-30 11:22 27.56374 6.90222 38035 ft 451 kts 343°
2026-04-30 11:22 27.62591 6.89535 38030 ft 451 kts 343°
2026-04-30 11:23 27.68842 6.88847 38026 ft 452 kts 343°
2026-04-30 11:24 27.78252 6.87809 38025 ft 452 kts 343°
2026-04-30 11:24 27.84495 6.87119 38018 ft 450 kts 343°
2026-04-30 11:25 27.93872 6.86081 38016 ft 451 kts 343°
2026-04-30 11:26 28.06368 6.84693 38021 ft 451 kts 343°
2026-04-30 11:26 28.12635 6.84038 38019 ft 454 kts 345°
2026-04-30 11:27 28.18999 6.83849 38026 ft 458 kts 348°
2026-04-30 11:27 28.25383 6.83790 38020 ft 458 kts 348°
2026-04-30 11:28 28.34973 6.83701 38024 ft 457 kts 348°
2026-04-30 11:29 28.41409 6.83636 38015 ft 456 kts 348°
2026-04-30 11:29 28.50996 6.83537 38013 ft 457 kts 348°
2026-04-30 11:30 28.60526 6.83438 37994 ft 456 kts 348°
2026-04-30 11:31 28.66878 6.83372 37990 ft 456 kts 348°
2026-04-30 11:31 28.73272 6.83305 37986 ft 456 kts 348°
2026-04-30 11:32 28.79608 6.83239 37980 ft 455 kts 348°
2026-04-30 11:32 28.85940 6.83174 37981 ft 456 kts 347°
2026-04-30 11:33 28.95502 6.83073 37983 ft 455 kts 348°
2026-04-30 11:33 29.01803 6.83006 37980 ft 455 kts 347°
2026-04-30 11:34 29.08182 6.82938 37973 ft 455 kts 348°
2026-04-30 11:34 29.14518 6.82873 37966 ft 454 kts 347°
2026-04-30 11:35 29.20859 6.82807 37964 ft 455 kts 347°
2026-04-30 11:35 29.27165 6.82742 37962 ft 454 kts 347°
2026-04-30 11:36 29.33520 6.82671 37957 ft 456 kts 348°
2026-04-30 11:36 29.39858 6.82606 37956 ft 454 kts 348°
2026-04-30 11:37 29.46188 6.82542 37957 ft 453 kts 347°
2026-04-30 11:37 29.52523 6.82470 37951 ft 456 kts 347°
2026-04-30 11:38 29.58885 6.82402 37950 ft 456 kts 348°
2026-04-30 11:38 29.65183 6.82339 37949 ft 454 kts 347°
2026-04-30 11:39 29.71501 6.82272 37949 ft 453 kts 347°
2026-04-30 11:39 29.77861 6.82203 37949 ft 455 kts 347°
2026-04-30 11:40 29.84164 6.82135 37950 ft 454 kts 347°
2026-04-30 11:40 29.90503 6.82067 37942 ft 454 kts 347°
2026-04-30 11:41 29.96849 6.81997 37941 ft 454 kts 348°
2026-04-30 11:41 30.03165 6.81930 37937 ft 454 kts 347°
2026-04-30 11:42 30.09517 6.81861 37940 ft 455 kts 348°
2026-04-30 11:42 30.15838 6.81794 37941 ft 453 kts 348°
2026-04-30 11:43 30.22141 6.81727 37943 ft 454 kts 347°
2026-04-30 11:43 30.28507 6.81656 37947 ft 454 kts 348°
2026-04-30 11:44 30.34813 6.81589 37943 ft 454 kts 348°
2026-04-30 11:44 30.41173 6.81519 37942 ft 456 kts 348°
2026-04-30 11:45 30.47502 6.81454 37940 ft 454 kts 348°
2026-04-30 11:45 30.53824 6.81385 37938 ft 453 kts 348°
2026-04-30 11:46 30.60159 6.81315 37935 ft 455 kts 348°
2026-04-30 11:46 30.66519 6.81248 37933 ft 455 kts 348°
2026-04-30 11:47 30.72870 6.81177 37935 ft 456 kts 348°
2026-04-30 11:47 30.79175 6.81110 37933 ft 455 kts 348°
2026-04-30 11:48 30.85506 6.81042 37931 ft 455 kts 348°
2026-04-30 11:48 30.91867 6.80972 37930 ft 454 kts 348°
2026-04-30 11:49 30.98198 6.80902 37930 ft 456 kts 348°
2026-04-30 11:49 31.04545 6.80832 37933 ft 454 kts 348°
2026-04-30 11:50 31.10878 6.80763 37938 ft 455 kts 348°
2026-04-30 11:50 31.17221 6.80693 37934 ft 456 kts 349°
2026-04-30 11:51 31.23566 6.80623 37937 ft 455 kts 349°
2026-04-30 11:51 31.29924 6.80552 37933 ft 456 kts 349°
2026-04-30 11:52 31.36288 6.80484 37937 ft 456 kts 349°
2026-04-30 11:52 31.42645 6.80413 37935 ft 456 kts 349°
2026-04-30 11:53 31.49030 6.80343 37931 ft 457 kts 349°
2026-04-30 11:53 31.55354 6.80275 37931 ft 457 kts 349°
2026-04-30 11:54 31.61723 6.80202 37938 ft 457 kts 350°
2026-04-30 11:54 31.68081 6.80134 37937 ft 457 kts 350°
2026-04-30 11:55 31.74439 6.80063 37934 ft 458 kts 350°
2026-04-30 11:55 31.80828 6.79992 37938 ft 458 kts 350°
2026-04-30 11:56 31.87213 6.79922 37942 ft 457 kts 350°
2026-04-30 11:56 31.93570 6.79851 37940 ft 457 kts 350°
2026-04-30 11:57 31.99951 6.79779 37942 ft 459 kts 351°
2026-04-30 11:57 32.06352 6.79707 37941 ft 458 kts 351°
2026-04-30 11:58 32.12750 6.79638 37947 ft 458 kts 351°
2026-04-30 11:58 32.19139 6.79567 37951 ft 458 kts 351°
2026-04-30 11:59 32.25509 6.79493 37952 ft 459 kts 351°
2026-04-30 11:59 32.31909 6.79420 37954 ft 459 kts 351°
2026-04-30 12:00 32.38316 6.79349 37949 ft 459 kts 351°
2026-04-30 12:00 32.44698 6.79277 37951 ft 459 kts 351°
2026-04-30 12:01 32.51103 6.79206 37955 ft 459 kts 351°
2026-04-30 12:01 32.57502 6.79133 37950 ft 459 kts 352°
2026-04-30 12:02 32.63882 6.79062 37955 ft 459 kts 352°
2026-04-30 12:02 32.70286 6.78991 37960 ft 459 kts 351°
2026-04-30 12:03 32.79858 6.78880 37969 ft 460 kts 352°
2026-04-30 12:04 32.86301 6.78807 37970 ft 460 kts 352°
2026-04-30 12:04 32.92698 6.78734 37975 ft 460 kts 352°
2026-04-30 12:05 32.99065 6.78662 37977 ft 460 kts 352°
2026-04-30 12:05 33.05490 6.78588 37976 ft 460 kts 352°
2026-04-30 12:06 33.11941 6.78516 37987 ft 460 kts 352°
2026-04-30 12:06 33.18327 6.78442 37977 ft 460 kts 352°
2026-04-30 12:07 33.24719 6.78369 37987 ft 459 kts 352°
2026-04-30 12:07 33.31112 6.78294 37970 ft 459 kts 352°
2026-04-30 12:08 33.37513 6.78222 37964 ft 459 kts 352°
2026-04-30 12:08 33.43866 6.78147 37962 ft 458 kts 352°
2026-04-30 12:09 33.50249 6.78071 37962 ft 457 kts 351°
2026-04-30 12:09 33.56595 6.77748 37971 ft 455 kts 350°
2026-04-30 12:10 33.62913 6.77359 37964 ft 455 kts 350°
2026-04-30 12:10 33.69219 6.76971 37956 ft 454 kts 350°
2026-04-30 12:11 33.75565 6.76582 37958 ft 454 kts 350°
2026-04-30 12:11 33.81862 6.76197 37953 ft 455 kts 350°
2026-04-30 12:12 33.88219 6.75810 37960 ft 456 kts 351°
2026-04-30 12:12 33.94548 6.75424 37953 ft 455 kts 351°
2026-04-30 12:13 34.00971 6.75031 37958 ft 455 kts 350°
2026-04-30 12:13 34.07292 6.74644 37952 ft 455 kts 350°
2026-04-30 12:14 34.13626 6.74256 37952 ft 455 kts 350°
2026-04-30 12:14 34.19951 6.73867 37950 ft 455 kts 350°
2026-04-30 12:15 34.26247 6.73479 37954 ft 455 kts 350°
2026-04-30 12:15 34.32579 6.73089 37953 ft 455 kts 350°
2026-04-30 12:16 34.38936 6.72695 37956 ft 455 kts 350°
2026-04-30 12:16 34.45237 6.72306 37965 ft 456 kts 351°
2026-04-30 12:17 34.54750 6.71717 37976 ft 455 kts 351°
2026-04-30 12:17 34.61095 6.71322 37987 ft 455 kts 351°
2026-04-30 12:18 34.67410 6.70929 37998 ft 456 kts 351°
2026-04-30 12:18 34.73738 6.70534 38005 ft 455 kts 351°
2026-04-30 12:19 34.80139 6.70134 38023 ft 455 kts 351°
2026-04-30 12:19 34.86479 6.69747 38046 ft 456 kts 351°
2026-04-30 12:20 34.92772 6.69364 38058 ft 456 kts 351°
2026-04-30 12:20 34.99173 6.68972 38090 ft 456 kts 351°
2026-04-30 12:21 35.05502 6.68583 38123 ft 456 kts 351°
2026-04-30 12:21 35.11814 6.68193 38142 ft 456 kts 351°
2026-04-30 12:22 35.18177 6.67800 38166 ft 457 kts 351°
2026-04-30 12:22 35.24537 6.67407 38185 ft 457 kts 351°
2026-04-30 12:23 35.30909 6.67013 38193 ft 457 kts 351°
2026-04-30 12:23 35.37225 6.66622 38181 ft 457 kts 351°
2026-04-30 12:24 35.43587 6.66226 38166 ft 458 kts 351°
2026-04-30 12:24 35.49935 6.65830 38163 ft 458 kts 351°
2026-04-30 12:25 35.56302 6.65435 38144 ft 457 kts 351°
2026-04-30 12:25 35.62678 6.65036 38141 ft 459 kts 351°
2026-04-30 12:26 35.69094 6.64636 38138 ft 458 kts 351°
2026-04-30 12:26 35.75514 6.64233 38140 ft 459 kts 351°
2026-04-30 12:27 35.81894 6.63833 38131 ft 459 kts 352°
2026-04-30 12:27 35.88248 6.63434 38136 ft 459 kts 352°
2026-04-30 12:28 35.94655 6.63031 38132 ft 460 kts 352°
2026-04-30 12:28 36.01012 6.62631 38133 ft 460 kts 352°
2026-04-30 12:29 36.07451 6.62224 38119 ft 460 kts 352°
2026-04-30 12:29 36.13854 6.61819 38116 ft 459 kts 352°
2026-04-30 12:30 36.20270 6.61412 38111 ft 459 kts 352°
2026-04-30 12:30 36.26644 6.61074 38101 ft 461 kts 354°
2026-04-30 12:31 36.33095 6.61419 38101 ft 465 kts
2026-04-30 12:31 36.39531 6.62352 38113 ft 466 kts
2026-04-30 12:32 36.46008 6.63351 38107 ft 466 kts
2026-04-30 12:32 36.52442 6.64339 38108 ft 466 kts
2026-04-30 12:33 36.58864 6.65322 38090 ft 465 kts
2026-04-30 12:33 36.65300 6.66305 38081 ft 466 kts
2026-04-30 12:34 36.71696 6.67284 38074 ft 465 kts
2026-04-30 12:34 36.78124 6.68268 38072 ft 465 kts
2026-04-30 12:35 36.84542 6.69254 38060 ft 465 kts
2026-04-30 12:35 36.90935 6.70236 38058 ft 465 kts
2026-04-30 12:36 36.97376 6.71229 38064 ft 464 kts
2026-04-30 12:36 37.03794 6.72220 38060 ft 464 kts
2026-04-30 12:37 37.10207 6.73211 38058 ft 464 kts
2026-04-30 12:37 37.16599 6.74200 38058 ft 464 kts
2026-04-30 12:38 37.23004 6.75194 38062 ft 464 kts
2026-04-30 12:38 37.29407 6.76188 38059 ft 463 kts
2026-04-30 12:39 37.35816 6.77185 38060 ft 463 kts
2026-04-30 12:39 37.42205 6.78181 38057 ft 462 kts
2026-04-30 12:40 37.48552 6.79172 38057 ft 462 kts
2026-04-30 12:40 37.54933 6.80169 38059 ft 462 kts
2026-04-30 12:41 37.61317 6.81170 38060 ft 462 kts
2026-04-30 12:41 37.67681 6.82169 38055 ft 461 kts
2026-04-30 12:42 37.74043 6.83169 38062 ft 461 kts
2026-04-30 12:42 37.80370 6.84165 38055 ft 461 kts
2026-04-30 12:43 37.86752 6.85170 38061 ft 461 kts
2026-04-30 12:43 37.93105 6.86174 38056 ft 460 kts
2026-04-30 12:44 37.99432 6.87176 38058 ft 460 kts
2026-04-30 12:44 38.05794 6.88186 38058 ft 459 kts
2026-04-30 12:45 38.12118 6.89190 38056 ft 459 kts
2026-04-30 12:45 38.18427 6.90194 38059 ft 459 kts
2026-04-30 12:46 38.24776 6.91207 38057 ft 459 kts
2026-04-30 12:46 38.31076 6.92214 38058 ft 458 kts
2026-04-30 12:47 38.37415 6.93227 38054 ft 458 kts
2026-04-30 12:47 38.43720 6.94237 38058 ft 458 kts
2026-04-30 12:48 38.50053 6.95254 38059 ft 459 kts
2026-04-30 12:48 38.56381 6.96271 38057 ft 458 kts
2026-04-30 12:49 38.62677 6.97285 38058 ft 458 kts
2026-04-30 12:49 38.68993 6.98305 38058 ft 458 kts
2026-04-30 12:50 38.75310 6.99327 38057 ft 458 kts
2026-04-30 12:50 38.81623 7.00350 38060 ft 457 kts
2026-04-30 12:51 38.87966 7.01379 38057 ft 457 kts
2026-04-30 12:51 38.94248 7.02399 38059 ft 457 kts
2026-04-30 12:52 39.00531 7.03419 38056 ft 456 kts
2026-04-30 12:52 39.06863 7.04207 38055 ft 455 kts 359°
2026-04-30 12:53 39.13124 7.04927 38056 ft 455 kts 359°
2026-04-30 12:53 39.19423 7.05668 38056 ft 454 kts 359°
2026-04-30 12:54 39.25708 7.06417 38055 ft 454 kts 359°
2026-04-30 12:54 39.31991 7.07171 38056 ft 454 kts 359°
2026-04-30 12:55 39.38278 7.07930 38057 ft 454 kts 359°
2026-04-30 12:55 39.44563 7.08688 38057 ft 454 kts 359°
2026-04-30 12:56 39.50840 7.09447 38057 ft 453 kts 359°
2026-04-30 12:56 39.57116 7.10208 38058 ft 453 kts 359°
2026-04-30 12:57 39.63379 7.10968 38057 ft 452 kts 359°
2026-04-30 12:57 39.69646 7.11729 38057 ft 452 kts 359°
2026-04-30 12:58 39.75901 7.12491 38056 ft 452 kts 359°
2026-04-30 12:58 39.82161 7.13255 38057 ft 452 kts 359°
2026-04-30 12:59 39.88395 7.14018 38055 ft 452 kts 359°
2026-04-30 12:59 39.94663 7.14785 38054 ft 451 kts 359°
2026-04-30 13:00 40.00888 7.15548 38059 ft 451 kts 359°
2026-04-30 13:00 40.07145 7.16317 38057 ft 451 kts 359°
2026-04-30 13:01 40.13360 7.17082 38056 ft 451 kts 359°
2026-04-30 13:01 40.19604 7.17858 38055 ft 452 kts 359°
2026-04-30 13:02 40.25839 7.18702 38058 ft 452 kts 359°
2026-04-30 13:02 40.32103 7.19561 38057 ft 452 kts 359°
2026-04-30 13:03 40.38324 7.20412 38061 ft 451 kts 359°
2026-04-30 13:03 40.44577 7.21266 38059 ft 451 kts 359°
2026-04-30 13:04 40.50787 7.22115 38060 ft 451 kts 359°
2026-04-30 13:04 40.57032 7.22972 38063 ft 451 kts 359°
2026-04-30 13:05 40.63277 7.23829 38060 ft 450 kts 359°
2026-04-30 13:06 40.72604 7.25111 38060 ft 451 kts 359°
2026-04-30 13:06 40.78822 7.25971 38063 ft 451 kts 358°
2026-04-30 13:07 40.85067 7.26832 38062 ft 450 kts 359°
2026-04-30 13:07 40.91312 7.27696 38065 ft 451 kts 358°
2026-04-30 13:08 40.97479 7.28553 38063 ft 450 kts 358°
2026-04-30 13:08 41.03690 7.29414 38065 ft 450 kts 358°
2026-04-30 13:09 41.09915 7.30279 37839 ft 451 kts 358°
2026-04-30 13:09 41.13036 7.30713 38005 ft 453 kts 358°
2026-04-30 13:09 41.16154 7.31147 38053 ft 453 kts 359°
2026-04-30 13:10 41.22441 7.32027 38071 ft 453 kts 359°
2026-04-30 13:10 41.28692 7.32902 38074 ft 452 kts 359°
2026-04-30 13:11 41.34942 7.33777 38078 ft 453 kts 359°
2026-04-30 13:11 41.41201 7.34657 38078 ft 453 kts 359°
2026-04-30 13:12 41.47469 7.35540 38076 ft 454 kts 359°
2026-04-30 13:12 41.53721 7.36422 38085 ft 454 kts 359°
2026-04-30 13:13 41.63123 7.37754 38077 ft 454 kts 359°
2026-04-30 13:14 41.72570 7.39093 38085 ft 454 kts 359°
2026-04-30 13:14 41.81969 7.40430 38090 ft 455 kts 359°
2026-04-30 13:15 41.91411 7.41776 38097 ft 456 kts 359°
2026-04-30 13:16 41.97693 7.42674 38094 ft 455 kts 359°
2026-04-30 13:16 42.03983 7.43576 38091 ft 456 kts 359°
2026-04-30 13:17 42.13448 7.44934 38105 ft 456 kts 359°
2026-04-30 13:18 42.22855 7.46292 38103 ft 456 kts 359°
2026-04-30 13:18 42.32329 7.47661 38107 ft 455 kts 359°
2026-04-30 13:19 42.38580 7.48566 38103 ft 455 kts 360°
2026-04-30 13:19 42.44891 7.49483 38107 ft 455 kts 360°
2026-04-30 13:20 42.51163 7.50394 38109 ft 455 kts 360°
2026-04-30 13:20 42.57474 7.51315 38110 ft 456 kts 360°
2026-04-30 13:21 42.63754 7.52234 38114 ft 455 kts 360°
2026-04-30 13:22 42.73184 7.53613 38113 ft 455 kts
2026-04-30 13:22 42.82601 7.54996 38120 ft 456 kts
2026-04-30 13:23 42.92096 7.56393 38321 ft 461 kts
2026-04-30 13:24 42.98416 7.57330 39081 ft 458 kts
2026-04-30 13:24 43.04740 7.58268 39710 ft 455 kts
2026-04-30 13:25 43.11031 7.59254 40106 ft 458 kts
2026-04-30 13:25 43.17302 7.60636 40131 ft 459 kts
2026-04-30 13:26 43.32977 7.64239 40140 ft 457 kts
2026-04-30 13:28 43.48654 7.67836 40145 ft 457 kts
2026-04-30 13:28 43.58039 7.69996 40146 ft 456 kts
2026-04-30 13:29 43.70553 7.72887 40149 ft 456 kts
2026-04-30 13:30 43.79740 7.76258 40158 ft 462 kts 18°
2026-04-30 13:31 43.85571 7.80105 40164 ft 466 kts 26°
2026-04-30 13:32 43.99407 7.91692 40177 ft 463 kts 21°
2026-04-30 13:33 44.11335 7.98090 40193 ft 459 kts 16°
2026-04-30 13:34 44.20333 8.02569 40196 ft 458 kts 16°
2026-04-30 13:35 44.32218 8.08532 40205 ft 455 kts 16°
2026-04-30 13:36 44.44178 8.14564 40207 ft 456 kts 17°
2026-04-30 13:36 44.53089 8.19078 40227 ft 455 kts 17°
2026-04-30 13:37 44.61981 8.23597 40229 ft 454 kts 17°
2026-04-30 13:38 44.70845 8.28112 40239 ft 454 kts 17°
2026-04-30 13:39 44.82693 8.34175 40248 ft 454 kts 17°
2026-04-30 13:40 44.91567 8.38734 40264 ft 452 kts 17°
2026-04-30 13:40 44.97438 8.41759 40258 ft 452 kts 17°
2026-04-30 13:41 45.03365 8.44817 40276 ft 451 kts 17°
2026-04-30 13:41 45.09216 8.47842 40274 ft 451 kts 17°
2026-04-30 13:42 45.15110 8.50899 40270 ft 452 kts 17°
2026-04-30 13:42 45.23938 8.55489 40275 ft 450 kts 17°